DateTimeUTC,F1_A11,F1_S11,BsB_S11,BsG_S11,BsR_S11,BbsB_S11,BbsG_S11,BbsR_S11,BaB_A11,BaG_A11,BaR_A11,Tu_S11,T_S11,Uu_S11,U_S11,P_S11,T1_A11
2021-11-22T12:00:00Z,00000200,21000000,,,,,,,0000.09,-000.00,0000.23,19.8,26.7,,00.0,0632.2,31.0
2021-11-22T12:01:00Z,00000200,21000000,,,,,,,0000.04,0000.09,-000.10,19.7,26.7,,00.0,0632.2,31.0
2021-11-22T12:02:00Z,00000200,21000000,,,,,,,-000.06,0000.18,0000.00,19.7,26.7,,00.0,0632.2,31.0
2021-11-22T12:03:00Z,00000200,61000000,,,,,,,0000.17,0000.01,0000.14,19.7,26.7,,00.0,0632.2,31.0
2021-11-22T12:04:00Z,00000200,41000000,0000.35,0000.28,0000.13,-000.01,0000.53,0000.16,0000.13,0000.09,0000.20,19.7,26.4,,00.0,0633.0,31.0
2021-11-22T12:05:00Z,00000200,01000000,0001.04,-000.03,-000.23,0000.39,0000.27,0000.03,0000.29,-000.10,0000.05,19.8,26.3,,00.0,0633.1,31.0
2021-11-22T12:06:00Z,00000200,01000000,0000.04,0000.10,-000.12,-000.32,0000.05,0000.11,-000.09,0000.10,-000.18,19.9,26.3,,00.0,0633.1,31.0
2021-11-22T12:07:00Z,00000200,01000000,-000.80,0000.08,0000.03,0000.25,-000.16,-000.09,-000.16,0000.08,0000.10,19.9,26.4,,00.0,0633.1,31.0
2021-11-22T12:08:00Z,00000200,01000000,0000.18,0000.30,-000.25,-000.32,0000.45,0000.01,-000.25,-000.47,-000.16,19.9,26.4,,00.0,0633.1,31.0
2021-11-22T12:09:00Z,00000200,01000000,0000.60,0000.04,0000.16,0000.32,0000.19,-000.12,0000.49,0000.51,-000.06,20.0,26.4,,00.0,0633.1,31.0
2021-11-22T12:10:00Z,00000200,01000000,0000.06,0000.02,-000.13,-000.70,-000.08,0000.22,-000.19,-000.05,0000.04,20.1,26.4,,00.0,0633.1,31.0
2021-11-22T12:11:00Z,00000200,01000000,0000.21,0000.54,0000.23,0000.85,0000.23,0000.22,-000.19,-000.26,0000.34,20.1,26.5,,00.0,0633.2,31.0
2021-11-22T12:12:00Z,00000200,01000000,-000.19,0000.37,-000.11,0000.38,-000.14,0000.35,0000.11,0000.04,-000.03,20.1,26.5,,00.0,0633.2,31.0
2021-11-22T12:13:00Z,00000200,01000000,0000.68,0000.38,-000.13,0000.19,0000.27,0000.15,-000.06,-000.31,-000.48,20.0,26.5,,00.0,0633.1,31.0
2021-11-22T12:14:00Z,00000200,01000000,0000.53,0000.30,-000.50,-000.12,0000.13,0000.24,-000.31,0000.31,0000.01,20.0,26.5,,00.0,0633.2,31.0
2021-11-22T12:15:00Z,00000200,01000000,0000.25,0000.23,-000.44,0000.23,0000.13,-000.03,-000.06,-000.11,0000.26,19.9,26.4,,00.0,0633.1,31.0
2021-11-22T12:16:00Z,00000200,01000000,-000.38,-000.37,-000.07,0000.24,0000.19,-000.06,0000.17,-000.23,0000.07,19.8,26.4,,00.0,0633.1,31.0
2021-11-22T12:17:00Z,00000200,01000000,0000.60,-000.06,0000.23,-000.28,0000.44,-000.04,0000.24,0000.43,0000.18,19.7,26.3,,00.0,0633.1,30.9
2021-11-22T12:18:00Z,00000200,01000000,0000.26,0000.19,-000.12,0000.76,0000.17,-000.21,0000.12,0000.06,-000.35,19.7,26.3,,00.0,0633.1,30.9
2021-11-22T12:19:00Z,00000200,01000000,0000.26,-000.18,0000.05,0000.26,0000.32,0000.21,0000.14,0000.18,0000.57,19.8,26.3,,00.0,0633.1,31.0
2021-11-22T12:20:00Z,00000200,01000000,0000.12,0000.13,-000.21,0000.63,0000.12,-000.18,-000.13,-000.23,-000.19,19.8,26.3,,00.0,0633.1,30.9
2021-11-22T12:21:00Z,00000200,01000000,0000.85,0000.19,0000.09,0000.03,0000.11,-000.01,-000.13,0000.25,0000.13,19.8,26.3,,00.0,0633.1,31.0
2021-11-22T12:22:00Z,00000200,01000000,0000.53,0000.36,-000.50,0000.01,0000.26,-000.37,0000.37,0000.09,-000.04,19.8,26.3,,00.0,0633.1,31.0
2021-11-22T12:23:00Z,00000200,01000000,0000.84,0000.16,-000.02,0000.36,0000.12,-000.01,0000.01,-000.10,-000.11,19.8,26.4,,00.0,0633.1,31.0
2021-11-22T12:24:00Z,00000200,01000000,-000.88,-000.04,0000.32,0000.01,-000.13,0000.15,-000.13,0000.10,0000.10,19.8,26.4,,00.0,0633.1,31.0
2021-11-22T12:25:00Z,00000200,01000000,0000.03,0000.18,-000.27,0000.28,-000.08,-000.07,0000.00,-000.03,0000.35,19.8,26.4,,00.0,0633.1,31.0
2021-11-22T12:26:00Z,00000200,01000000,0001.12,0000.21,-000.02,0000.69,-000.09,0000.18,-000.16,-000.15,-000.28,19.8,26.4,,00.0,0633.0,31.0
2021-11-22T12:27:00Z,00000200,01000000,0000.15,0000.29,-000.48,0000.01,0000.06,0000.03,0000.29,0000.39,-000.03,19.9,26.4,,00.0,0633.0,31.0
2021-11-22T12:28:00Z,00000200,01000000,0000.45,-000.01,-000.49,-000.04,-000.14,0000.17,-000.01,-000.10,-000.13,19.8,26.4,,00.0,0633.0,31.0
2021-11-22T12:29:00Z,00000200,01000000,-000.23,0000.46,-000.08,0000.09,0000.23,0000.20,-000.18,-000.32,0000.04,19.8,26.4,,00.0,0633.0,31.0
2021-11-22T12:30:00Z,00000200,01000000,-000.21,0000.33,-000.19,0000.37,0000.07,-000.19,0000.25,0000.23,-000.05,19.7,26.4,,00.0,0633.0,31.0
2021-11-22T12:31:00Z,00000200,01000000,0000.55,-000.02,0000.00,0000.48,0000.14,0000.21,-000.34,0000.08,0000.29,19.7,26.3,,00.0,0633.0,30.9
2021-11-22T12:32:00Z,00000200,01000000,-000.18,0000.18,-000.19,0000.70,0000.45,0000.03,0000.40,0000.10,0000.05,19.6,26.3,,00.0,0633.0,30.9
2021-11-22T12:33:00Z,00000200,01000000,0000.03,-000.00,0000.19,-000.07,0000.42,0000.31,-000.01,0000.23,-000.27,19.6,26.2,,00.0,0633.0,30.9
2021-11-22T12:34:00Z,00000200,01000000,0000.76,-000.04,-000.09,0001.05,0000.04,-000.34,0000.37,-000.18,0000.38,19.6,26.2,,00.0,0633.0,30.9
2021-11-22T12:35:00Z,00000200,01000000,-000.34,0000.04,0000.17,0000.75,0000.09,0000.12,-000.25,0000.14,0000.23,19.6,26.2,,00.0,0633.0,30.9
2021-11-22T12:36:00Z,00000200,01000000,0000.00,-000.08,-000.24,0000.29,-000.18,0000.01,0000.22,-000.16,-000.09,19.6,26.2,,00.0,0633.0,31.0
2021-11-22T12:37:00Z,00000200,01000000,0000.18,0000.36,-000.19,-000.09,0000.28,-000.13,-000.25,-000.25,-000.09,19.7,26.3,,00.0,0633.0,31.0
2021-11-22T12:38:00Z,00000200,01000000,-000.30,0000.19,-000.27,-000.22,0000.12,0000.29,0000.16,0000.47,0000.39,19.7,26.3,,00.0,0633.1,31.0
2021-11-22T12:39:00Z,00000200,01000000,0000.10,0000.00,0000.08,0000.37,0000.28,-000.17,0000.13,-000.31,-000.40,19.7,26.3,,00.0,0633.1,31.0
2021-11-22T12:40:00Z,00000200,01000000,0000.13,-000.20,-000.15,0000.62,0000.25,-000.07,-000.00,0000.06,0000.10,19.8,26.3,,00.0,0633.1,31.0
2021-11-22T12:41:00Z,00000200,01000000,0000.68,0000.07,0000.01,0000.45,0000.16,-000.02,-000.03,0000.21,-000.02,19.7,26.3,,00.0,0633.1,31.0
2021-11-22T12:42:00Z,00000200,01000000,-000.57,0000.06,0000.18,-000.22,0000.09,0000.21,-000.16,-000.19,-000.16,19.7,26.3,,00.0,0633.1,30.9
2021-11-22T12:43:00Z,00000200,01000000,0008.16,0008.60,0009.05,0002.32,0002.04,0001.85,0031.65,0031.84,0031.64,19.6,26.3,,00.0,0632.0,30.9
2021-11-22T12:44:00Z,00000200,01000000,0000.38,0000.51,0000.43,0000.34,0000.12,-000.31,0003.06,0003.38,0003.64,19.6,26.2,,00.0,0630.9,30.9
2021-11-22T12:45:00Z,00000200,01000000,-000.26,-000.21,0000.15,0000.54,0000.37,0000.26,0000.17,-000.21,-000.09,19.5,26.1,,00.0,0631.0,30.9
2021-11-22T12:46:00Z,00000200,01000000,0000.11,0000.14,-000.23,0000.26,0000.12,-000.14,0000.51,0000.43,0000.30,19.4,26.1,,00.0,0631.0,30.8
2021-11-22T12:47:00Z,00000200,01000000,-000.34,0000.47,-000.36,0000.29,0000.12,-000.02,-000.37,0000.12,0000.13,19.3,26.0,,00.0,0631.0,30.8
2021-11-22T12:48:00Z,00000200,01000000,0000.49,0000.11,-000.10,0000.31,0000.28,-000.22,0000.09,-000.13,-000.23,19.2,26.0,,00.0,0631.0,30.8
2021-11-22T12:49:00Z,00000200,01000000,-000.80,0000.09,0000.08,0000.57,0000.18,0000.08,0000.27,0000.32,0000.21,19.2,25.9,,00.0,0631.0,30.8
2021-11-22T12:50:00Z,00000200,01000000,0000.35,-000.39,0000.11,-000.33,-000.06,0000.13,-000.14,0000.05,0000.33,19.2,25.9,,00.0,0631.0,30.8
2021-11-22T12:51:00Z,00000200,01000000,0001.05,-000.08,-000.26,0000.43,0000.02,-000.43,0000.12,-000.10,-000.45,19.2,25.9,,00.0,0631.1,30.9
2021-11-22T12:52:00Z,00000200,01000000,0000.35,0000.30,-000.20,0000.60,0000.20,0000.01,0000.35,0000.06,0000.64,19.3,25.9,,00.0,0631.1,30.9
2021-11-22T12:53:00Z,00000200,01000000,-000.16,0000.18,0000.15,0000.63,0000.10,0000.07,0000.16,0000.31,-000.15,19.3,26.0,,00.0,0631.1,30.9
2021-11-22T12:54:00Z,00000200,01000000,-000.31,-000.04,0000.20,0000.04,0000.41,0000.31,-000.18,-000.03,0000.28,19.3,26.0,,00.0,0631.2,30.9
2021-11-22T12:55:00Z,00000200,01000000,0000.78,0000.12,0000.08,0000.20,0000.32,0000.10,-000.03,0000.04,-000.28,19.4,26.0,,00.0,0631.2,30.9
2021-11-22T12:56:00Z,00000200,01000000,0000.67,-000.03,-000.18,0000.03,0000.07,-000.22,0000.16,-000.04,0000.17,19.4,26.0,,00.0,0631.3,30.9
2021-11-22T12:57:00Z,00000200,41000000,,,,,,,-000.34,-000.17,-000.37,19.5,26.0,,00.0,0631.3,30.9
2021-11-22T12:58:00Z,00000200,61000000,,,,,,,-000.05,-000.12,0000.02,19.1,26.1,,00.0,0630.4,30.9
2021-11-22T12:59:00Z,00000200,21000000,,,,,,,0000.12,0000.10,-000.07,19.1,26.2,,00.0,0630.4,30.9
